Regional Weather Roundup
Issued by NWS

Home | Current Version | Previous Version | Text Only | Print | Product List | Glossary On
Versions: 1 2 3 4 5 6 7 8 9 10 11 12 13 14 15 16 17 18 19 20 21 22 23 24 25 26 27 28 29 30 31 32 33 34 35 36 37 38 39 40 41 42 43 44 45 46 47 48 49 50
000
ASUS43 KOAX 190510
RWRNE

WEATHER ROUNDUP FOR NEBRASKA
NATIONAL WEATHER SERVICE OMAHA NE
1200 AM CDT SUN APR 19 2015

NOTES: SATELLITE DATA IS BEING USED TO AUGMENT CLOUD COVER ABOVE
       12000 FEET.
       "FAIR" INDICATES FEW OR NO CLOUDS BELOW 12,000 FEET WITH NO
       SIGNIFICANT WEATHER AND/OR OBSTRUCTIONS TO VISIBILITY.

  * THESE STATIONS DO NOT REPORT WEATHER SUCH AS RAIN...SNOW OR FOG.

NEZ001>004-019>022-054>056-190600-
NEBRASKA PANHANDLE

CITY           SKY/WX    TMP DP  RH WIND       PRES   REMARKS
SCOTTSBLUFF    CLOUDY    44  32  62 NW10      29.97R
ALLIANCE       MOCLDY    45  42  89 NW7       29.92F
CHADRON        LGT RAIN  46  42  86 N12       29.97R
KIMBALL        CLOUDY    42  40  93 NW21      29.94S
SIDNEY         LGT RAIN  45  42  89 N21       29.92R
$$

NEZ057>060-069>072-079>082-190600-
SOUTHWEST NEBRASKA

CITY           SKY/WX    TMP DP  RH WIND       PRES   REMARKS
NORTH PLATTE   RAIN      49  46  90 N10       29.86S
IMPERIAL       CLOUDY    49  44  83 N12       29.86R
LEXINGTON      CLOUDY    52  49  87 W8        29.81F
MCCOOK         CLOUDY    54  47  77 E12       29.83R
OGALLALA       CLOUDY    49  45  85 N17G29    29.86S
$$

NEZ005>010-023>029-035>040-094-190600-
NORTH CENTRAL NEBRASKA

CITY           SKY/WX    TMP DP  RH WIND       PRES   REMARKS
VALENTINE      CLOUDY    50  45  83 NW5       29.88R
AINSWORTH      CLOUDY    53  51  94 N10       29.85F
BROKEN BOW     CLOUDY    52  47  83 W16       29.79F
O`NEILL        CLOUDY    55  55  99 N7        29.80F THUNDER FOG
ORD            CLOUDY    54  46  74 W18G26    29.77F
THEDFORD       CLOUDY    52  49  90 NW21      29.87R
$$

NEZ041-046>049-061>064-073>077-083>087-190600-
SOUTH CENTRAL NEBRASKA

CITY           SKY/WX    TMP DP  RH WIND       PRES   REMARKS
GRAND ISLAND   CLOUDY    54  47  77 S9        29.79F
AURORA         CLOUDY    55  51  86 S6        29.80S
HASTINGS       CLOUDY    53  48  83 S6        29.78F
HEBRON         CLOUDY    54  49  85 CALM      29.78F
HOLDREGE       CLOUDY    52  47  85 SE8       29.81S
KEARNEY *      CLOUDY    54  46  76 N3        29.77F
YORK           CLOUDY    55  50  82 W6        29.80F
$$

NEZ011>018-030>034-042>045-190600-
NORTHEAST NEBRASKA

CITY           SKY/WX    TMP DP  RH WIND       PRES   REMARKS
ALBION         MOCLDY    54  47  76 SE7       29.78S
BLAIR          CLOUDY    56  54  93 CALM      29.81S
COLUMBUS *     CLOUDY    54  46  76 S3        29.81S
FREMONT        CLOUDY    59  56  92 S8        29.81S
TEKAMAH        CLOUDY    54  53  97 SE7       29.80F FOG
WAYNE          MOCLDY    55  53  94 S6        29.79F
$$

NEZ050>053-065>068-078-088>093-190600-
SOUTHEAST NEBRASKA

CITY           SKY/WX    TMP DP  RH WIND       PRES   REMARKS
LINCOLN        CLOUDY    59  51  75 SW5       29.80F
OMAHA EPPLEY   MOCLDY    56  55  97 CALM      29.81F
BEATRICE       CLOUDY    55  53  94 NW5       29.81F
FALLS CITY     CLOUDY    57  55  93 S6        29.80F
NEBRASKA CITY  FOG       56  56  99 CALM      29.81S VSB 1/2
PLATTSMOUTH    CLOUDY    56  54  94 S3        29.81S
$$

NEZ044-045-051>053-067-190600-
OMAHA AREA

CITY           SKY/WX    TMP DP  RH WIND       PRES   REMARKS
OMAHA EPPLEY   MOCLDY    56  55  97 CALM      29.81F
BLAIR          CLOUDY    56  54  93 CALM      29.81S
FREMONT        CLOUDY    59  56  92 S8        29.81S
MILLARD        CLOUDY    58  56  92 S3        29.81S
OFFUTT AFB     CLOUDY    55  55 100 S3        29.80F
PLATTSMOUTH    CLOUDY    56  54  94 S3        29.81S
WAHOO          CLOUDY    56  54  92 SE3       29.80F FOG
$$


USA.gov is the U.S. government's official web portal to all federal, state and local government web resources and services.